Flag for U.S.A. Weather past 2 weeks in Sunrise, Florida, U.S.A.

Now
77 °F

Light rain. Scattered clouds.


Feels Like: 79 °F
Forecast: 78 / 89 °F
Wind: 7 mph from Northwest

Location: Fort Lauderdale Executive Airport

Current Time: Aug 1, 2015 at 7:17:29 PM

Latest Report: Aug 1, 2015 at 6:53 PM


Visibility: 10 mi

Pressure: 29.98 "Hg

Humidity: 71%

Dew point: 67 °F

Location of SunriseLocation

Historic Weather in Sunrise — Graph

°F

Sunrise temperature yesterday

Maximum temperature yesterday: 91 °F (at 12:53 PM)
Minimum temperature yesterday: 77 °F (at 10:53 PM)
Average temperature yesterday: 82 °F

Past Weeks' High & Low Weather Summary

 TemperatureHumidityPressure
High96 °F (Jul 28, 3:53 PM)100% (Jul 18, 6:53 AM)30.11 "Hg (Jul 18, 6:53 AM)
Low75 °F (Jul 17, 7:53 PM)38% (Jul 28, 3:53 PM)29.89 "Hg (Jul 26, 4:53 AM)
Average83 °F74%30.01 "Hg
* Reported Jul 17 5:53 PM — Aug 1 5:53 PM, Sunrise, Weather by CustomWeather, © 2015

Note: Actual official high and low records may vary slightly from our data, if they occured in-between our weather recording intervals... More about our weather records

Advertising

Sunrise weather history for previous 24 hours

 ConditionsComfort  
Time TempWeatherWind HumidityBarometerVisibility
5:53 PM
Sat, Aug 1
88 °FBroken clouds.13 mph55%29.96 "Hg10 mi
4:53 PM89 °FSunny.7 mph61%29.96 "Hg10 mi
3:53 PM90 °FPartly sunny.12 mph56%29.96 "Hg10 mi
2:53 PM91 °FBroken clouds.14 mph56%29.97 "Hg10 mi
1:53 PM91 °FBroken clouds.14 mph60%30.00 "Hg10 mi
12:53 PM90 °FBroken clouds.13 mph59%30.01 "Hg10 mi
11:53 AM90 °FBroken clouds.15 mph61%30.02 "Hg10 mi
10:53 AM89 °FBroken clouds.12 mph68%30.01 "Hg10 mi
9:53 AM83 °FPartly sunny.No wind74%30.00 "Hg10 mi
8:53 AM80 °FSunny.No wind76%30.02 "Hg10 mi
7:53 AM78 °FBroken clouds.3 mph79%30.00 "Hg10 mi
6:53 AM78 °FPassing clouds.5 mph74%29.99 "Hg10 mi
5:53 AM79 °FClear.5 mph72%30.02 "Hg10 mi
4:53 AM78 °FClear.No wind74%30.01 "Hg10 mi
3:53 AM77 °FClear.No wind82%30.01 "Hg10 mi
2:53 AM77 °FClear.No wind82%30.02 "Hg10 mi
1:53 AM78 °FClear.No wind74%30.03 "Hg10 mi
12:53 AM78 °FClear.No wind74%30.05 "Hg10 mi
11:53 PM
Fri, Jul 31
78 °FClear.3 mph74%30.05 "Hg10 mi
10:53 PM77 °FClear.6 mph74%30.05 "Hg10 mi
9:53 PM78 °FPassing clouds.3 mph69%30.03 "Hg10 mi
8:53 PM79 °FSunny.No wind69%30.03 "Hg10 mi
7:53 PM79 °FPassing clouds.3 mph69%30.02 "Hg10 mi
Weather by CustomWeather, © 2015

See weather overviewHow to use our weather pages